Weather in Khuchni

Russia / Republic of Dagestan     41°56′48″N   47°56′42″E
temp.,
°C
wind,
m/s
gust,
m/s
humid.,
%
clouds,
%
prec.,
mm/h
press.,
hPa
HPBL,
m
13 april, tue
tue1300:00+9sse22770 0.0 102113
03:00+9s228015 0.0 102110
06:00+9s2278100 0.0 102227
09:00+15se48405 0.0 1021969
12:00+18ese57390 0.0 10201314
15:00+17ese67393 0.0 10181165
18:00+13se23496 0.0 101851
21:00+11ssw1152100 0.0 101810
14 april, wed
wed1400:00+11sw11502 0.0 101610
03:00+9w115730 0.0 101510
06:00+9nw11595 0.0 101514
09:00+12nne32560 0.0 1015557
12:00+14nne5361100 0.1 10141066
15:00+11n5782100 1.2 1014681
18:00+11nw3675100 0.9 1014437
21:00+10w3476100 4.2 1016114
15 april, thu
thu1500:00+9wnw227196 0.0 101514
03:00+8ssw33681 0.0 101523
06:00+9sw32580 0.0 101525
09:00+15ese44410 0.0 1015996
12:00+18ene43380 0.0 10141650
15:00+16ne43529 0.0 10151053
18:00+13sse23625 0.0 101667
21:00+12sw22655 0.0 101715
16 april, fri
fri1600:00+11sw226296 0.0 101615
03:00+11sw2262100 0.0 101612
06:00+12sw2260100 0.0 101722
09:00+16ese3344100 0.0 10171211
12:00+18e434019 0.0 10161701
15:00+17e5448100 0.3 10161090
18:00+13se22659 1.1 101750
21:00+12ssw2273100 1.8 101724
17 april, sat
sat1700:00+11ssw11712 0.0 101710
03:00+11sw22643 0.0 101611
06:00+12sw22605 0.0 101713
09:00+17ene2149100 0.0 1017621
12:00+17nne6546100 0.0 10181221
15:00+15n5560100 0.0 10201113
18:00+12n4575100 0.1 1021747
21:00+11nnw2381100 0.1 1022436